Overview Statistics Trail Chart Weather Telemetry Raw packets
 

This is the latest recevied weather packets stored in our database for station/object SR4DIG-13. If no packets are shown the sender has not sent any weather packets the latest 10 day(s).

<< 91 92 93 94 95 96 97 >>
Time Temp. Humidity Pressure Rain* Wind** Luminosity Snow
1787927506 22.78° C 45% 1020.9 hPa 0 mm - - -
1787927205 23.33° C 44% 1020.8 hPa 0 mm - - -
1787926904 23.89° C 43% 1020.8 hPa 0 mm - - -
1787926603 24.44° C 41% 1020.9 hPa 0 mm - - -
1787926302 25.56° C 41% 1021 hPa 0 mm - - -
1787926001 25° C 41% 1021.1 hPa 0 mm - - -
1787925635 25.56° C 40% 1021 hPa 0 mm - - -
1787925166 25.56° C 41% 1021.2 hPa 0 mm - - -
1787924865 25° C 42% 1021.3 hPa 0 mm - - -
1787924564 24.44° C 43% 1021.3 hPa 0 mm - - -
1787924263 23.89° C 43% 1021.4 hPa 0 mm - - -
1787923962 23.89° C 44% 1021.5 hPa 0 mm - - -
1787923661 23.89° C 44% 1021.7 hPa 0 mm - - -
1787923360 23.89° C 44% 1021.7 hPa 0 mm - - -
1787923060 22.78° C 46% 1021.9 hPa 0 mm - - -
1787922758 22.22° C 46% 1022 hPa 0 mm - - -
1787922457 22.78° C 46% 1021.9 hPa 0 mm - - -
1787922156 22.78° C 44% 1021.8 hPa 0 mm - - -
1787921855 23.33° C 43% 1021.8 hPa 0 mm - - -
1787921555 23.89° C 43% 1021.8 hPa 0 mm - - -
1787921254 25° C 41% 1022.3 hPa 0 mm - - -
1787920953 25° C 41% 1021.9 hPa 0 mm - - -
1787920652 25° C 41% 1022.1 hPa 0 mm - - -
1787920351 25° C 40% 1022 hPa 0 mm - - -
1787920050 25.56° C 40% 1022.1 hPa 0 mm - - -

* Rain latest hour (hover to see other rain measurements)
** Current wind speed in m/s (hover to see current wind gust speed)